Miscellaneous Local Product
Issued by NWS North Platte, NE

Home | Current Version | Previous Version | Graphics & Text | Print | Product List | Glossary On
Versions: 1 2 3 4 5 6 7 8 9 10 11 12 13 14 15 16 17 18 19 20 21 22 23 24 25 26 27 28 29 30 31 32 33 34 35 36 37 38 39 40 41 42 43 44 45 46 47 48 49 50
000
AXUS43 KLBF 141510
MISLBF


WESTERN AND NORTH CENTRAL NEBRASKA HOURLY WEATHER ROUNDUP
NATIONAL WEATHER SERVICE NORTH PLATTE NE
1000 AM CDT SUN SEP 14 2014

***STATIONS NOT REPORTING VARIABLES SUCH AS SKY/WEATHER OR
PRESSURE ARE PROVIDED BY THE NEBRASKA DEPARTMENT OF
ROADS...RAWS...AND APRS NETWORKS...AND ARE NOT UNDER
NATIONAL WEATHER SERVICE QUALITY CONTROL***

...OBSERVATIONS IN AND NEAR THE EASTERN PANHANDLE OF NEBRASKA...

CITY           SKY/WX    TMP DP  RH WIND       PRES   REMARKS
PINE RIDGE     PTSUNNY   49  38  65 E16       30.15F
CHADRON        CLOUDY    46  41  82 NE5       30.14F
ALLIANCE       CLOUDY    47  44  90 SE12      30.10F
SIDNEY         FOG       47  46  97 E5        30.12S VSB<1/4
WHITECLAY        N/A     48  36  63 E12         N/A
RUSHVILLE        N/A     46  36  66 E15         N/A
CRESCENT LAKE    N/A     51  46  84 E9G16       N/A
LISCO            N/A     47  44  88 E7          N/A
BIG SPRINGS      N/A     43  42  96 E3          N/A
$$

...OBSERVATIONS IN NORTH CENTRAL NEBRASKA...

CITY           SKY/WX    TMP DP  RH WIND       PRES   REMARKS
VALENTINE      SUNNY     50  42  74 E8        30.18S
THEDFORD       MOSUNNY   52  45  77 E9        30.17S
AINSWORTH      SUNNY     50  42  72 E9        30.18S
O`NEILL        MOSUNNY   50  46  86 NE3       30.19S
ORD            PTSUNNY   50  46  86 SE3       30.18S
BROKEN BOW     PTSUNNY   52  44  74 E6        30.17R
SPRINGVIEW       N/A     49  44  82 CALM        N/A
ROSE             N/A     52  46  78 NE10        N/A
NEWPORT          N/A     52  43  73 E8          N/A
COMSTOCK         N/A     53  46  78 E3          N/A
CHAMBERS         N/A     53  45  75 E5          N/A
EWING            N/A     51  49  92 CALM        N/A
$$

...OBSERVATIONS IN SOUTHWEST NEBRASKA AND FAR NORTHEAST COLORADO...

CITY           SKY/WX    TMP DP  RH WIND       PRES   REMARKS
WRAY           FOG      N/A N/A N/A E6        30.10F VSB<1/4
HOLYOKE        FOG       48  46  93 SE5       30.13S VSB 1/4
IMPERIAL       SUNNY     51  47  86 SE7       30.13S
OGALLALA       MOSUNNY   49  46  88 E7        30.14S
NORTH PLATTE   MOSUNNY   49  44  83 E7        30.15F
MCCOOK         SUNNY     49  44  83 CALM      30.15R
LEXINGTON      MOSUNNY   50  46  86 CALM      30.16S
PAXTON           N/A     43  41  94 CALM        N/A
SUTHERLAND       N/A     42  40  94 E6          N/A
BRADY            N/A     49  45  86 CALM        N/A
GOTHENBURG       N/A     44  40  86 CALM        N/A
CALLAWAY         N/A     44  43  97 E6          N/A
$$

...SOME WEATHER OBSERVATIONS FROM AROUND THE REGION...

CITY           SKY/WX    TMP DP  RH WIND       PRES   REMARKS
DENVER         MOSUNNY   66  36  32 SW12      30.14S
LARAMIE        MOSUNNY   62  31  31 SW20      30.19F
CHEYENNE       SUNNY     61  39  44 W5        30.14S
SCOTTSBLUFF    FOG       47  47 100 SE3       30.11S VSB 1
RAPID CITY     CLOUDY    46  37  71 S3        30.18S
PIERRE         MOSUNNY   50  41  71 NE5       30.18F
WINNER         CLOUDY    50  42  74 CALM      30.19S
SIOUX FALLS    MOSUNNY   53  45  74 CALM      30.19R
OMAHA          MOSUNNY   58  48  69 S9        30.22S
GRAND ISLAND   MOSUNNY   56  47  71 S5        30.19S
KANSAS CITY    MOSUNNY   62  49  62 S6        30.26R
WICHITA        MOSUNNY   64  51  62 S13       30.22F
HAYS           SUNNY     57  48  72 S12       30.16S
LIBERAL        SUNNY     64  55  72 S17       30.14R
GOODLAND       FOG       50  50 100 SE6       30.13S VSB 1/2
$$



USA.gov is the U.S. government's official web portal to all federal, state and local government web resources and services.